Guymon, OK

1:33 AM CDT on April 30, 2017 (GMT -0500)
Guymon Municipal

Weather History for KGUY - November, 2010

Change the Weather History Date:

Sunday, November 28, 2010

  Actual Average Record
Temperature  
Mean Temperature 49 °F 40 °F  
Max Temperature 67 °F 54 °F 83 °F (2014)
Min Temperature 30 °F 26 °F 14 °F (2001)
Degree Days  
Heating Degree Days 16 25  
Month to date heating degree days 530 531  
Since 1 July heating degree days 677 840  
Cooling Degree Days 0 0  
Month to date cooling degree days 0 0  
Year to date cooling degree days 1827 1481  
Moisture  
Dew Point 11 °F    
Average Humidity 29    
Maximum Humidity 49    
Minimum Humidity 9    
Precipitation  
Precipitation 0.00 in 0.02 in 0.03 in (2004)
Month to date precipitation 0.16 0.51  
Year to date precipitation 14.79 18.64  
Snow  
Snow 0.00 in - - ()
Month to date snowfall 0.0  
Since 1 July snowfall 0.0  
Since 1 September snowfall 0.0  
Snow Depth 0.00 in    
Sea Level Pressure  
Sea Level Pressure 29.49 in    
Wind  
Wind Speed 18 mph (SSW)    
Max Wind Speed 37 mph    
Max Gust Speed 47 mph    
Visibility 10 miles    
Events      
T = Trace of Precipitation, MM = Missing Value Source: NWS Daily Summary

Daily Weather History Graph

Daily Weather History Graph

Search for Another Location

Airport or City:

Trip Planner

Search our weather history database for the weather conditions in past years. The results will help you decide how hot, cold, wet, or windy it might be!

Date:

Astronomy

Nov. 28, 2010 Rise Set
Actual Time 7:37 AM CST 5:30 PM CST
Civil Twilight 7:08 AM CST 5:59 PM CST
Nautical Twilight 6:36 AM CST 6:30 PM CST
Astronomical Twilight 6:05 AM CST 7:02 PM CST
Moon No Moon Rise 12:53 PM CST (11/28)
Length of Visible Light 10h 50m
Length of Day
9h 53m
Waning Gibbous, 51% of the Moon is Illuminated
Nov 28
Waning Gibbous
Nov 28
Last Quarter
Dec 5
New
Dec 13
First Quarter
Dec 21
Full

Hourly Weather History & Observations

Time (CST) Temp. Windchill Dew Point Humidity Pressure Visibility Wind Dir Wind Speed Gust Speed Precip Events Conditions
12:53 AM 34.0 °F 26.6 °F 10.9 °F 38% 29.70 in 10.0 mi South 9.2 mph - N/A   Clear
1:53 AM 33.1 °F 24.9 °F 10.0 °F 38% 29.67 in 10.0 mi South 10.4 mph - N/A   Clear
2:53 AM 37.0 °F 27.0 °F 9.0 °F 31% 29.62 in 10.0 mi South 18.4 mph - N/A   Clear
3:53 AM 36.0 °F 26.3 °F 10.0 °F 34% 29.61 in 10.0 mi South 16.1 mph - N/A   Clear
4:53 AM 33.1 °F 24.9 °F 10.9 °F 40% 29.60 in 10.0 mi South 10.4 mph - N/A   Clear
5:53 AM 34.0 °F 24.6 °F 12.9 °F 42% 29.58 in 10.0 mi South 13.8 mph - N/A   Clear
6:53 AM 32.0 °F 22.5 °F 14.0 °F 48% 29.57 in 10.0 mi South 12.7 mph - N/A   Clear
7:53 AM 30.9 °F 22.2 °F 14.0 °F 50% 29.59 in 10.0 mi SSW 10.4 mph - N/A   Clear
8:53 AM 35.1 °F 26.4 °F 14.0 °F 42% 29.56 in 10.0 mi South 12.7 mph - N/A   Clear
9:53 AM 43.0 °F 34.2 °F 12.9 °F 30% 29.53 in 10.0 mi SSW 20.7 mph 29.9 mph N/A   Clear
10:53 AM 51.1 °F - 12.9 °F 22% 29.50 in 10.0 mi SSW 24.2 mph 32.2 mph N/A   Clear
11:53 AM 60.1 °F - 14.0 °F 16% 29.44 in 10.0 mi SSW 24.2 mph 32.2 mph N/A   Clear
12:53 PM 63.0 °F - 12.9 °F 14% 29.39 in 10.0 mi SSW 33.4 mph 44.9 mph N/A   Clear
1:53 PM 64.9 °F - 10.9 °F 12% 29.37 in 10.0 mi SSW 29.9 mph 38.0 mph N/A   Clear
2:53 PM 66.9 °F - 7.0 °F 10% 29.32 in 10.0 mi SSW 32.2 mph 47.2 mph N/A   Clear
3:53 PM 66.0 °F - 7.0 °F 10% 29.33 in 10.0 mi SSW 28.8 mph 38.0 mph N/A   Clear
4:53 PM 64.0 °F - 8.1 °F 11% 29.34 in 10.0 mi SSW 26.5 mph 33.4 mph N/A   Clear
5:53 PM 57.0 °F - 7.0 °F 14% 29.38 in 10.0 mi SW 12.7 mph - N/A   Clear
6:53 PM 50.0 °F - 8.1 °F 18% 29.41 in 10.0 mi WSW 10.4 mph - N/A   Clear
7:53 PM 50.0 °F - 5.0 °F 16% 29.41 in 10.0 mi WSW 12.7 mph - N/A   Clear
8:53 PM 45.0 °F 39.3 °F 7.0 °F 21% 29.42 in 10.0 mi WSW 11.5 mph - N/A   Clear
9:53 PM 36.0 °F 28.0 °F 8.1 °F 31% 29.46 in 10.0 mi SW 11.5 mph - N/A   Clear
10:53 PM 36.0 °F 28.0 °F 12.0 °F 37% 29.46 in 10.0 mi SW 11.5 mph - N/A   Clear
11:53 PM 42.1 °F 33.9 °F 14.0 °F 32% 29.42 in 10.0 mi WSW 17.3 mph - N/A   Clear